Погода в Марса-Аламе

Египет     25°04′19″N   34°53′10″E
темп.,
°C
ветер,
м/с
пор.,
м/с
влажн.,
%
обл.,
%
осадки,
мм/ч
давл.,
гПа
погр.,
м
29 января, сб
сб2923:00+16сз810580 0.0 1021836
02:00+15сз1012580 0.0 1020839
05:00+15сз911620 0.0 1020736
08:00+16сз1011600 0.0 10211022
11:00+18ссз1010580 0.0 10201467
14:00+18ссз99570 0.0 10191323
17:00+18с88570 0.0 1019874
20:00+17сз67550 0.0 1020813
30 января, вс
вс3023:00+16зсз67580 0.0 1019627
02:00+16сз67600 0.0 1017519
05:00+15сз66552 0.0 1018546
08:00+16зсз454768 0.0 1019472
11:00+18с44385 0.0 1018781
14:00+18ссв654188 0.0 1016777
17:00+18с444188 0.0 1016793
20:00+18ссз3345100 0.0 1017738
31 января, пн
пн3123:00+17зсз3348100 0.0 1016595
02:00+17зсз5637100 0.0 1015575
05:00+17зсз7741100 0.0 1015683
08:00+17зсз773899 0.0 1017927
11:00+19ссз46290 0.0 10171472
14:00+21зсз89260 0.0 10142717
17:00+20зсз1010312 0.0 10162217
20:00+18сз78380 0.0 10181458
1 февраля, вт
вт123:00+16зсз78480 0.0 1019590
02:00+16зсз56490 0.0 1019584
05:00+15зсз45500 0.0 1019553
08:00+16сз565270 0.0 1021532
11:00+18с66530 0.0 10211365
14:00+19с65520 0.0 10191455
17:00+19ссв44501 0.0 10191487
20:00+18ссв44560 0.0 1020935
2 февраля, ср
ср223:00+17ссз22530 0.0 1019519
02:00+17ссв23530 0.0 1018757
05:00+17ссз23550 0.0 1017810
08:00+18сз34540 0.0 1018596
11:00+20с44500 0.0 1017558
14:00+21с43430 0.0 1013882
17:00+21ссв33490 0.0 1013555
20:00+20ссз22510 0.0 1014460